Wind_Speed
32 32 33 34 36 36 35 33 31 30 32 34 36 37 36 36 34 35 33 32 32 32 31 31 31 31 31 30 30 30 29 29 27 26 25 24 23 22 21 19 18 16 15 13 12 10 9 8 8
35 36 37 39 40 40 37 35 34 33 35 36 38 39 39 39 37 36 35 34 34 34 33 33 33 33 33 32 32 31 31 31 29 28 27 26 25 24 23 21 20 18 17 15 13 12 10 9 9
38 39 41 43 43 42 41 40 38 38 39 39 41 42 42 41 40 38 37 37 37 36 36 35 35 35 35 34 33 33 33 33 32 30 29 28 27 26 24 23 22 20 18 17 15 14 12 11 10
41 43 45 47 46 43 43 44 43 42 42 43 44 45 44 43 42 41 40 40 39 39 38 38 37 37 37 36 36 35 34 34 34 32 31 30 29 27 26 24 23 22 20 19 17 16 14 13 12
44 46 49 50 49 47 47 47 47 47 46 46 47 47 47 46 45 44 43 42 42 41 41 40 40 39 39 38 38 37 36 36 35 34 33 32 30 29 27 26 24 23 22 21 19 17 16 14 13
47 49 52 53 51 50 51 51 51 51 50 50 50 50 49 48 48 47 46 45 44 44 44 43 42 41 41 40 40 39 38 37 37 36 35 33 32 30 29 27 26 25 23 22 20 19 17 16 14
50 52 54 54 54 54 53 54 54 54 53 53 53 54 52 51 51 50 49 48 47 46 46 45 45 43 43 42 41 41 40 39 38 37 36 35 33 32 30 28 27 26 25 23 22 20 19 17 16
51 55 56 56 57 56 56 56 56 56 56 55 57 57 55 54 54 53 52 51 50 49 48 48 47 46 45 44 43 42 41 40 40 39 38 37 35 33 31 30 29 27 26 25 24 22 21 19 18
52 56 57 57 58 58 58 58 58 58 58 58 58 59 58 57 57 55 55 54 52 51 51 50 49 48 47 46 45 43 43 42 41 40 39 38 36 35 32 31 30 29 27 26 25 23 22 20 19
53 56 57 57 59 59 59 59 59 60 60 59 59 60 60 59 59 58 57 56 55 54 53 52 51 50 49 48 47 45 44 43 42 41 40 38 37 36 34 32 31 30 29 27 26 25 23 22 21
54 56 56 57 58 59 60 59 59 60 61 59 60 60 61 61 61 60 59 58 57 56 56 54 53 52 51 50 49 48 46 45 44 42 41 40 39 37 35 34 32 31 30 29 28 26 24 23 22
54 54 55 56 57 58 58 58 59 60 59 58 59 61 62 62 62 62 61 60 59 58 57 56 55 54 54 52 51 50 48 47 45 43 42 41 40 38 37 35 34 32 31 30 29 27 26 24 23
53 53 54 53 54 55 56 57 58 57 57 58 59 61 61 62 63 63 63 62 61 61 59 58 57 57 55 54 53 51 50 48 47 45 44 42 41 40 38 37 35 34 32 31 30 28 27 25 24
51 51 51 49 49 50 52 53 55 53 54 56 57 59 61 61 62 63 64 63 63 62 61 60 60 58 57 55 54 52 51 50 48 47 46 44 42 41 40 38 36 35 33 32 30 29 28 26 25
48 48 47 45 45 45 46 49 49 48 49 51 54 55 58 60 61 62 63 63 63 63 62 62 61 60 59 57 55 54 53 52 50 49 47 46 44 42 41 39 38 36 34 33 31 30 29 28 27
44 43 42 38 39 41 43 43 41 43 45 47 50 52 54 56 59 60 62 63 63 63 63 63 62 62 60 58 56 55 55 53 52 50 48 47 45 43 42 40 39 37 35 34 32 31 30 29 28
40 38 37 35 34 36 39 40 35 38 43 45 46 49 51 53 56 58 60 63 63 64 64 64 63 63 62 60 57 56 55 53 52 50 49 48 47 45 43 41 40 38 36 35 33 32 31 30 29
37 35 34 32 32 34 36 36 32 35 39 42 43 46 48 50 52 55 59 62 63 64 64 65 64 63 63 61 59 57 56 54 52 50 49 48 47 46 44 42 40 39 37 36 35 33 32 31 30
34 35 33 30 32 34 33 31 28 30 34 37 39 42 45 47 51 54 57 61 63 64 65 65 64 64 63 62 61 58 56 54 52 51 50 49 47 46 45 43 41 40 38 37 35 34 33 32 31
33 34 32 29 29 31 30 27 26 26 29 33 36 38 41 44 48 52 55 58 61 64 64 64 64 64 64 62 60 58 56 55 53 51 50 49 48 47 45 44 42 40 39 38 36 35 33 32 31
31 31 30 28 26 27 27 24 24 24 27 30 33 36 39 41 45 50 53 56 58 61 64 64 64 64 63 62 61 59 57 55 54 52 50 49 48 47 46 44 42 41 39 38 36 36 34 33 32
29 28 27 26 26 25 23 22 20 21 25 28 30 34 37 38 42 47 52 55 56 59 62 63 63 64 63 62 60 59 58 55 53 52 50 49 48 47 46 44 43 41 39 38 36 35 35 34 33
28 27 26 25 25 23 21 21 19 19 22 25 28 32 35 37 40 45 50 54 55 57 59 61 64 64 63 62 60 60 58 55 53 53 52 49 48 47 46 45 43 41 40 38 37 36 35 34 33
27 26 26 25 24 22 19 19 18 17 20 23 25 30 33 35 38 43 48 53 54 56 58 59 62 64 63 63 61 60 59 57 54 52 52 50 48 47 45 44 43 41 40 39 37 36 35 34 33
26 25 25 25 23 21 19 17 16 15 18 22 24 27 32 35 37 43 47 51 54 55 57 57 59 62 63 63 61 61 60 57 55 52 51 50 48 46 44 43 43 42 41 40 38 37 36 35 34
25 24 24 24 22 21 18 16 15 14 15 20 24 25 30 34 37 42 45 49 54 55 55 57 59 60 62 62 60 60 60 58 54 52 51 50 48 47 45 43 42 42 42 41 39 38 36 36 35
25 23 23 23 22 21 20 17 14 14 14 16 21 25 27 31 35 40 44 48 52 55 54 55 57 58 61 62 61 60 59 58 55 52 51 50 49 48 45 43 43 42 42 41 40 38 37 37 36
25 24 23 22 23 22 20 17 16 13 14 15 18 23 27 30 33 38 43 47 51 53 53 54 56 58 59 61 61 60 59 58 55 51 50 50 50 48 46 44 44 43 42 41 40 40 38 37 37
25 23 22 22 23 23 23 19 17 15 15 16 17 20 24 29 32 36 42 46 49 52 52 54 55 57 59 61 62 60 59 57 54 52 51 50 49 49 47 46 45 43 42 41 40 40 39 38 37
26 24 23 23 23 24 25 22 18 16 15 16 18 19 22 27 32 35 40 44 47 50 51 52 54 57 60 61 61 61 59 58 55 52 50 51 50 49 48 47 46 45 43 42 41 40 39 38 37
Wind_Direction
281 278 274 272 270 270 271 270 268 264 260 257 255 254 253 252 250 250 247 243 241 239 237 235 234 233 232 231 231 230 229 228 228 228 228 228 228 228 227 227 229 229 230 234 238 242 250 256 261
280 278 275 272 271 272 273 271 268 264 260 257 255 254 252 250 249 248 246 242 240 239 237 235 234 233 232 231 230 230 230 229 229 229 229 229 229 229 228 228 230 230 232 234 238 242 248 256 262
279 277 275 273 273 274 274 270 267 263 260 258 255 253 252 250 248 247 245 242 239 238 236 234 233 233 232 231 230 229 229 229 229 229 229 230 230 230 229 229 230 231 233 235 238 243 248 255 261
279 277 275 274 275 275 271 269 266 262 259 257 256 253 252 250 248 246 244 242 239 237 236 234 233 232 232 231 230 229 229 229 229 229 229 230 230 231 230 231 231 232 233 235 238 242 248 253 259
280 277 275 275 275 273 269 266 264 262 259 256 255 254 251 248 246 245 243 241 239 237 236 234 233 232 232 232 231 229 229 229 228 229 229 230 230 231 231 231 231 232 233 235 237 242 247 252 257
280 278 276 276 275 271 268 265 263 261 259 256 254 252 250 248 245 243 242 240 238 237 235 234 233 232 231 231 231 230 228 228 228 228 228 229 230 231 231 231 231 232 233 235 238 241 246 251 255
281 279 277 276 274 271 269 266 263 261 258 255 253 251 249 246 244 241 240 239 237 235 234 233 232 231 231 230 230 229 228 227 227 227 227 228 230 231 231 231 232 232 233 236 238 241 245 250 254
281 280 278 276 274 271 269 266 263 260 257 254 252 251 248 245 243 241 239 238 236 234 233 231 231 230 230 229 228 228 228 227 227 227 227 228 229 230 231 231 232 232 234 236 239 242 245 249 252
282 281 280 278 275 272 268 265 262 260 257 253 251 249 247 244 242 240 238 236 235 233 232 230 229 229 228 228 227 227 227 227 226 226 227 227 229 230 230 231 232 232 234 236 239 242 245 248 252
285 284 283 279 275 272 268 265 262 259 256 253 251 248 246 243 240 238 237 235 233 232 231 229 228 227 227 227 227 225 226 226 226 226 227 227 228 229 230 231 232 233 234 237 240 242 244 248 251
288 286 284 278 275 272 269 265 262 259 256 253 250 247 244 242 239 236 234 233 232 230 229 227 226 226 226 226 226 225 225 225 226 226 227 227 227 229 230 231 233 234 235 237 239 242 245 248 251
291 288 284 280 275 272 268 265 262 259 256 251 248 245 242 240 237 235 233 231 229 228 227 226 225 224 224 224 224 224 224 225 225 226 227 227 228 229 229 231 233 234 236 238 239 242 245 248 250
294 290 285 281 276 272 268 264 261 258 254 249 245 243 240 239 235 232 231 229 227 226 225 224 223 222 222 222 222 223 223 224 224 225 226 227 227 228 229 231 233 234 236 238 239 242 245 247 249
297 292 287 282 277 273 268 265 261 258 253 249 245 242 238 236 234 231 228 227 225 224 223 222 222 221 220 220 221 222 222 223 224 224 225 226 227 228 229 231 232 234 236 238 240 242 245 247 248
300 295 289 285 279 274 271 267 264 259 253 248 244 240 237 235 232 229 226 225 223 222 221 220 220 219 219 219 220 221 221 221 223 224 225 226 226 227 229 230 232 233 235 237 239 242 245 246 248
303 298 294 289 282 276 273 270 264 258 252 247 243 239 235 233 231 227 224 222 221 220 219 218 218 218 217 218 219 221 220 221 222 223 224 225 226 227 229 231 232 233 235 237 239 242 244 246 248
305 302 298 291 284 279 276 272 266 259 252 247 242 238 233 231 230 226 223 221 219 218 217 217 217 217 217 217 218 220 220 221 222 223 224 225 226 227 229 230 231 233 234 236 239 242 244 246 248
307 305 303 295 286 282 279 275 269 262 253 246 241 237 232 229 227 225 222 219 218 217 215 215 215 215 216 216 217 219 220 220 222 222 224 225 225 226 228 230 231 234 234 236 239 242 244 246 248
308 308 306 300 289 283 281 276 270 264 253 245 240 236 232 229 226 223 221 218 216 216 215 214 214 214 215 216 216 218 219 220 221 222 223 224 225 226 228 229 231 234 235 236 238 240 243 245 248
309 309 309 303 295 286 281 277 269 261 252 246 240 236 233 230 227 223 220 217 216 216 214 213 213 213 214 215 216 217 218 219 221 222 222 223 224 226 227 229 231 233 234 236 238 240 242 244 248
312 310 311 306 299 292 285 279 271 261 250 243 238 234 231 229 226 223 219 214 214 214 213 212 212 212 213 215 215 216 216 218 220 221 222 223 224 226 227 229 231 233 234 236 238 240 241 243 247
315 313 311 307 302 300 293 290 279 266 252 242 235 231 229 227 225 221 216 212 211 212 212 212 211 211 212 214 215 216 216 217 219 221 222 223 224 226 227 229 231 233 233 236 238 239 241 244 248
318 316 312 308 303 300 296 291 290 272 256 244 235 231 228 226 223 219 214 211 210 210 211 211 210 211 212 213 214 215 215 217 219 220 222 224 225 225 227 229 230 232 233 235 236 239 242 244 248
318 316 312 310 306 301 298 291 292 278 260 249 239 232 229 224 222 218 214 211 209 209 209 210 211 211 211 213 214 215 216 218 219 220 222 223 224 226 228 229 230 231 232 234 236 239 242 244 247
318 317 316 315 310 305 299 294 294 278 260 251 243 234 229 224 220 216 213 211 210 209 209 210 210 211 212 213 214 215 216 217 219 220 221 222 223 225 227 229 230 231 232 234 236 239 242 244 248
319 318 316 313 309 306 299 296 294 278 262 250 243 236 230 225 221 216 214 211 210 209 209 210 209 211 212 212 213 214 216 217 218 219 220 221 223 224 226 228 229 230 232 234 236 239 242 245 249
318 315 311 307 304 305 302 294 288 278 262 251 245 237 232 228 222 217 215 212 212 210 209 210 210 210 212 213 213 214 216 217 218 219 220 221 222 224 226 228 228 230 232 234 236 240 243 246 250
317 314 309 304 301 301 300 294 288 282 269 257 246 237 233 229 225 220 216 213 212 212 210 210 211 211 212 213 214 216 217 218 219 219 220 221 223 224 226 228 229 231 233 235 238 240 244 247 251
315 309 305 298 293 292 293 290 288 284 271 260 250 239 235 230 226 221 217 215 215 213 211 212 212 213 213 214 215 215 215 217 218 220 221 222 223 224 227 228 230 232 234 237 239 242 245 248 251
313 305 299 293 289 287 286 285 288 281 271 262 255 244 238 231 226 221 218 216 217 216 214 213 213 213 213 214 215 215 215 216 217 219 221 222 222 224 226 229 231 233 235 238 241 243 246 249 252
Height
5816 5815 5815 5815 5814 5814 5815 5818 5819 5821 5821 5821 5821 5822 5824 5826 5829 5832 5833 5834 5835 5837 5840 5842 5844 5847 5849 5852 5854 5856 5858 5860 5862 5864 5865 5867 5868 5869 5870 5871 5872 5872 5873 5873 5873 5873 5873 5873 5873
5808 5807 5807 5806 5805 5805 5808 5810 5812 5813 5813 5813 5814 5814 5816 5818 5820 5822 5824 5827 5829 5831 5834 5836 5839 5841 5844 5846 5849 5851 5854 5856 5858 5860 5861 5863 5864 5866 5867 5868 5869 5870 5870 5871 5871 5871 5871 5871 5871
5799 5798 5797 5796 5796 5797 5800 5801 5803 5803 5803 5804 5804 5805 5807 5810 5812 5815 5817 5819 5822 5825 5827 5830 5833 5835 5838 5841 5843 5846 5849 5851 5854 5856 5857 5859 5861 5862 5864 5865 5866 5867 5868 5868 5869 5869 5869 5869 5869
5789 5787 5786 5786 5786 5789 5790 5790 5791 5792 5793 5794 5795 5796 5799 5802 5804 5806 5809 5811 5814 5817 5820 5823 5826 5829 5832 5834 5837 5840 5843 5846 5849 5851 5853 5855 5857 5859 5860 5862 5863 5864 5865 5865 5866 5867 5867 5867 5867
5777 5775 5773 5772 5775 5778 5778 5779 5778 5780 5782 5783 5784 5786 5788 5792 5794 5797 5799 5802 5806 5809 5812 5815 5818 5822 5825 5828 5831 5834 5837 5840 5843 5846 5848 5850 5853 5855 5856 5858 5859 5861 5862 5862 5863 5864 5864 5864 5864
5764 5762 5760 5759 5762 5765 5765 5766 5766 5767 5769 5771 5771 5774 5777 5780 5783 5786 5790 5793 5796 5800 5803 5807 5811 5814 5818 5821 5825 5828 5831 5834 5837 5840 5843 5845 5848 5850 5852 5854 5856 5857 5858 5859 5860 5861 5861 5861 5862
5751 5748 5746 5746 5747 5749 5751 5750 5751 5753 5755 5757 5758 5760 5765 5767 5770 5774 5778 5782 5786 5790 5794 5798 5802 5806 5810 5814 5817 5821 5824 5828 5831 5834 5837 5840 5843 5845 5847 5850 5851 5853 5854 5855 5856 5857 5858 5858 5859
5736 5732 5731 5731 5730 5733 5735 5734 5735 5736 5739 5741 5742 5746 5751 5754 5757 5762 5766 5771 5776 5780 5784 5789 5794 5798 5802 5806 5810 5814 5818 5821 5824 5828 5831 5835 5837 5840 5842 5845 5847 5848 5850 5851 5852 5853 5854 5855 5855
5719 5716 5714 5715 5713 5714 5715 5715 5717 5718 5721 5724 5727 5731 5735 5739 5743 5748 5754 5759 5764 5769 5774 5779 5784 5789 5794 5798 5802 5806 5810 5814 5817 5821 5825 5828 5831 5834 5837 5840 5842 5844 5846 5847 5848 5850 5850 5851 5852
5703 5699 5699 5698 5695 5694 5695 5696 5698 5700 5703 5707 5710 5714 5717 5722 5728 5734 5740 5746 5752 5758 5763 5769 5774 5780 5785 5789 5794 5798 5802 5806 5811 5815 5819 5822 5826 5829 5832 5834 5837 5839 5841 5842 5844 5845 5846 5847 5848
5686 5683 5681 5678 5675 5674 5674 5677 5679 5680 5684 5689 5692 5697 5700 5705 5711 5718 5725 5731 5738 5745 5751 5757 5764 5770 5775 5780 5785 5790 5795 5799 5804 5808 5812 5816 5819 5823 5826 5829 5831 5834 5836 5838 5839 5841 5842 5843 5844
5668 5665 5661 5658 5656 5654 5654 5656 5658 5660 5666 5669 5672 5677 5682 5688 5694 5701 5709 5716 5723 5731 5738 5745 5752 5759 5765 5770 5776 5782 5787 5792 5796 5801 5805 5809 5813 5817 5820 5823 5826 5828 5831 5833 5834 5836 5837 5839 5840
5651 5647 5642 5638 5636 5635 5634 5635 5637 5641 5646 5648 5652 5656 5663 5670 5677 5683 5691 5700 5708 5716 5725 5733 5740 5747 5754 5760 5767 5773 5778 5784 5789 5793 5798 5802 5806 5810 5814 5817 5820 5823 5825 5827 5829 5831 5833 5834 5835
5635 5629 5625 5621 5618 5617 5615 5617 5618 5624 5626 5629 5633 5638 5645 5651 5659 5666 5675 5684 5693 5702 5711 5720 5728 5736 5743 5750 5757 5764 5769 5776 5781 5786 5790 5795 5799 5803 5807 5811 5814 5817 5820 5822 5824 5826 5828 5829 5830
5620 5614 5611 5608 5604 5601 5599 5601 5605 5608 5608 5611 5616 5621 5627 5634 5641 5650 5659 5669 5679 5688 5698 5707 5716 5724 5733 5740 5747 5754 5760 5766 5772 5777 5782 5787 5792 5796 5800 5804 5808 5811 5814 5816 5818 5820 5822 5824 5825
5607 5602 5598 5597 5592 5589 5587 5587 5593 5591 5592 5596 5601 5605 5611 5618 5625 5634 5644 5654 5664 5675 5685 5694 5703 5713 5722 5730 5738 5744 5751 5757 5763 5769 5774 5779 5784 5789 5793 5797 5801 5804 5807 5810 5813 5815 5817 5818 5820
5596 5591 5587 5585 5581 5577 5575 5575 5581 5579 5579 5582 5587 5591 5597 5604 5611 5620 5629 5639 5650 5661 5672 5682 5692 5702 5711 5719 5727 5734 5741 5748 5754 5760 5766 5771 5776 5781 5786 5790 5794 5798 5801 5804 5807 5809 5811 5813 5814
5587 5582 5578 5575 5571 5568 5565 5565 5569 5568 5567 5570 5574 5579 5585 5591 5599 5607 5616 5626 5637 5648 5659 5669 5680 5690 5700 5709 5717 5724 5732 5739 5745 5752 5758 5763 5769 5774 5779 5783 5787 5791 5794 5797 5800 5803 5805 5807 5808
5578 5573 5569 5567 5563 5559 5557 5557 5559 5558 5558 5560 5564 5568 5574 5580 5588 5594 5603 5613 5624 5636 5647 5658 5669 5679 5689 5698 5707 5715 5723 5730 5737 5743 5750 5755 5761 5766 5771 5776 5780 5784 5788 5791 5794 5796 5799 5801 5802
5571 5567 5563 5560 5556 5552 5550 5551 5551 5550 5550 5552 5555 5559 5565 5570 5576 5584 5592 5602 5613 5624 5636 5647 5658 5668 5678 5689 5698 5706 5715 5722 5729 5735 5741 5747 5753 5759 5764 5769 5773 5777 5781 5784 5787 5790 5792 5795 5796
5567 5561 5556 5553 5550 5547 5544 5545 5545 5544 5543 5545 5547 5551 5556 5561 5567 5574 5582 5592 5602 5614 5625 5637 5648 5658 5669 5678 5687 5696 5704 5711 5718 5726 5733 5740 5746 5751 5756 5761 5766 5770 5774 5777 5780 5783 5786 5788 5790
5562 5557 5551 5547 5543 5541 5539 5536 5539 5538 5538 5539 5541 5544 5548 5553 5559 5565 5573 5583 5593 5604 5615 5626 5638 5649 5658 5668 5677 5686 5696 5704 5711 5719 5725 5732 5738 5743 5749 5754 5759 5763 5767 5770 5773 5776 5779 5781 5783
5557 5552 5548 5543 5539 5536 5535 5532 5534 5533 5532 5533 5535 5538 5541 5546 5551 5558 5566 5575 5585 5595 5605 5616 5627 5638 5648 5659 5668 5678 5687 5695 5702 5709 5716 5723 5729 5735 5741 5746 5751 5755 5760 5763 5767 5769 5772 5775 5777
5552 5548 5544 5540 5536 5534 5532 5529 5529 5528 5527 5528 5529 5532 5535 5540 5545 5552 5559 5567 5577 5587 5597 5607 5618 5629 5640 5650 5660 5669 5678 5686 5693 5700 5708 5715 5721 5727 5733 5739 5744 5748 5752 5756 5759 5762 5765 5768 5770
5548 5544 5539 5535 5532 5530 5528 5526 5526 5524 5523 5523 5525 5527 5530 5534 5539 5545 5552 5561 5570 5580 5590 5600 5610 5620 5631 5641 5651 5660 5669 5677 5685 5692 5699 5707 5713 5720 5726 5731 5736 5741 5745 5749 5752 5755 5758 5761 5763
5544 5540 5537 5532 5528 5526 5524 5523 5523 5520 5519 5519 5520 5522 5525 5529 5534 5540 5547 5555 5563 5573 5582 5592 5601 5611 5622 5632 5641 5650 5659 5668 5676 5684 5691 5699 5706 5712 5718 5724 5728 5733 5737 5741 5745 5748 5751 5753 5756
5539 5536 5533 5528 5524 5522 5521 5520 5519 5517 5516 5516 5516 5518 5520 5524 5529 5534 5541 5549 5557 5566 5575 5584 5593 5603 5613 5623 5632 5641 5650 5659 5668 5676 5683 5690 5697 5704 5710 5716 5721 5725 5729 5733 5737 5741 5743 5746 5748
5535 5531 5528 5524 5520 5517 5517 5515 5514 5513 5512 5512 5512 5513 5516 5519 5524 5529 5535 5542 5550 5559 5568 5576 5585 5594 5604 5614 5624 5632 5642 5651 5660 5667 5675 5682 5689 5696 5702 5708 5713 5717 5722 5726 5729 5733 5736 5739 5741
5531 5527 5523 5519 5516 5513 5511 5514 5510 5509 5508 5508 5508 5509 5511 5514 5518 5523 5529 5536 5543 5551 5560 5568 5577 5586 5596 5606 5615 5624 5633 5642 5651 5659 5667 5674 5680 5687 5694 5700 5705 5709 5714 5718 5722 5726 5729 5731 5733
5525 5522 5519 5516 5512 5509 5506 5509 5506 5505 5504 5503 5504 5505 5506 5509 5513 5518 5523 5530 5536 5544 5552 5561 5569 5578 5587 5597 5606 5615 5624 5634 5642 5651 5658 5666 5672 5679 5686 5691 5696 5702 5706 5711 5715 5718 5721 5724 5726